This demonstration page uses our WeatherBlox Daily Observations layout. Learn more.

Left ArrowRight Arrow

38.83388, -104.82136

Hourly Observations for January 18, 2021

Temp ( °F °C ) Dew Point ( °F °C ) Humidity (%) Winds ( mph kmh ) Pressure ( in mb ) Visibility ( mi km ) Precip ( " mm )
12:58 am 00:58 Clear 40 4.5 16 -8.8 38 38 SW 5 7 29.50 999 10 16 0.00 0.00
1:58 am 01:58 Partly Cloudy 37 2.9 18 -7.9 45 45 Calm 29.55 1001 10 16 0.00 0.00
2:58 am 02:58 Mostly Clear 37 2.7 19 -7.5 47 47 NW 9 15 29.57 1001 10 16 0.00 0.00
3:58 am 03:58 Mostly Cloudy 31 -0.3 20 -6.9 61 61 NW 12 19 29.65 1004 10 16 0.00 0.00
4:58 am 04:58 Mostly Cloudy 28 -2.2 21 -5.9 76 76 NW 17 28 29.69 1006 10 16 0.00 0.00
5:23 am 05:23 Mostly Cloudy 28 -2 21 -6 74 74 N 22 35 29.70 1006 10 16 0.00 0.00
5:58 am 05:58 Mostly Cloudy 27 -2.8 22 -5.4 83 83 NNW 16 26 29.72 1007 10 16 0.00 0.00
6:58 am 06:58 Mostly Cloudy 27 -3 22 -5.5 83 83 N 14 22 29.72 1006 10 16 0.00 0.00
7:53 am 07:53 Mostly Cloudy 27 -3 19 -7 74 74 NNW 8 13 29.76 1008 10 16 0.00 0.00
7:58 am 07:58 Partly Cloudy 27 -3 20 -6.5 77 77 NNW 8 13 29.76 1008 10 16 0.00 0.00
8:58 am 08:58 Mostly Sunny 28 -2.4 18 -7.6 68 68 N 14 22 29.75 1008 10 16 0.00 0.00
9:33 am 09:33 Mostly Cloudy 28 -2 16 -9 59 59 N 8 13 29.76 1008 10 16 0.00 0.00
9:58 am 09:58 Mostly Cloudy 28 -2.3 16 -9 60 60 N 13 20 29.74 1007 10 16 0.00 0.00
10:38 am 10:38 Partly Cloudy 28 -2 16 -9 59 59 NNE 8 13 29.74 1007 10 16 0.00 0.00
10:58 am 10:58 Sunny 29 -1.8 15 -9.5 56 56 N 8 13 29.76 1008 10 16 0.00 0.00
11:58 am 11:58 Mostly Cloudy 29 -1.6 15 -9.5 55 55 NNE 7 11 29.72 1006 10 16 0.00 0.00
12:58 pm 12:58 Cloudy 30 -1.3 16 -9 56 56 NNE 6 9 29.70 1006 10 16 0.00 0.00
1:58 pm 13:58 Cloudy 29 -1.7 17 -8.4 61 61 N 7 11 29.73 1007 10 16 0.00 0.00
2:58 pm 14:58 Cloudy with Haze 27 -3 20 -6.4 78 78 N 6 9 29.76 1008 1 2 0.00 0.00
3:03 pm 15:03 Cloudy with Haze 27 -3 21 -6 80 80 N 6 9 29.77 1008 3 5 0.00 0.00
3:13 pm 15:13 Cloudy with Haze 27 -3 21 -6 80 80 N 3 6 29.78 1009 3 5 0.00 0.00
3:43 pm 15:43 Cloudy with Mist and Fog 25 -4 21 -6 86 86 N 9 15 29.80 1009 2 3 0.00 0.00
3:58 pm 15:58 Cloudy with Mist and Fog 25 -3.9 22 -5.5 89 89 NW 7 11 29.83 1010 3 4 0.00 0.00
4:58 pm 16:58 Cloudy 26 -3.4 19 -7 76 76 N 8 13 29.86 1011 10 16 0.00 0.00
5:58 pm 17:58 Cloudy with Haze 26 -3.6 19 -7.1 77 77 NNW 10 17 29.90 1012 6 10 0.00 0.00
6:23 pm 18:23 Cloudy with Haze 25 -4 21 -6 86 86 N 12 19 29.92 1013 3 5 0.00 0.00
6:58 pm 18:58 Cloudy 25 -3.9 20 -6.9 80 80 NNW 9 15 29.92 1013 8 13 0.00 0.00
7:03 pm 19:03 Cloudy with Haze 25 -4 19 -7 80 80 NNW 9 15 29.93 1013 5 8 0.00 0.00
7:58 pm 19:58 Cloudy 26 -3.5 15 -9.5 64 64 NW 9 15 29.95 1014 10 16 0.00 0.00
8:43 pm 20:43 Cloudy with Haze 25 -4 16 -9 69 69 NNW 7 11 29.97 1015 5 8 0.00 0.00
8:58 pm 20:58 Cloudy with Haze 24 -4.3 17 -8.1 75 75 NNW 9 15 29.97 1015 2 4 0.00 0.00
9:13 pm 21:13 Cloudy with Mist and Fog 23 -5 19 -7 86 86 NW 12 19 30.00 1016 5 8 0.00 0.00
9:28 pm 21:28 Cloudy with Haze 23 -5 19 -7 86 86 NW 13 20 30.00 1016 2 4 0.00 0.00
9:43 pm 21:43 Cloudy with Haze 23 -5 18 -8 80 80 NW 12 19 30.01 1016 2 4 0.00 0.00
9:58 pm 21:58 Cloudy with Haze 22 -5.3 18 -7.6 84 84 NW 10 17 30.02 1017 2 3 0.00 0.00
10:13 pm 22:13 Cloudy with Freezing Fog 21 -6 18 -8 86 86 NNW 9 15 30.02 1017 1 1 0.00 0.00
10:58 pm 22:58 Cloudy with Mist and Fog 21 -6 18 -7.7 88 88 NNW 13 20 30.03 1017 3 5 0.00 0.00
11:13 pm 23:13 Cloudy with Mist and Fog 21 -6 18 -8 86 86 NNW 12 19 30.04 1017 4 6 0.00 0.00
11:48 pm 23:48 Cloudy with Mist and Fog 19 -7 16 -9 86 86 N 14 22 30.04 1017 3 4 0.00 0.00
11:58 pm 23:58 Cloudy with Mist and Fog 20 -6.8 16 -8.7 87 87 NNW 13 20 30.04 1017 3 4 0.00 0.00

Powered by AerisWeather